SCP
0 0 0 0 0 0 -0 -0 -0 0 1 1 1 1 1 1 1 1 1 1 1 0 0 0 0 0 0 0 0 0 0 0
0 0 0 0 0 0 -0 -1 -0 0 1 1 1 1 0 0 0 1 1 1 0 0 0 0 0 0 0 0 0 0 0 0
0 0 0 0 0 0 0 0 0 1 1 1 1 0 0 0 0 0 0 0 0 0 0 0 0 0 0 0 0 0 0 0
0 0 0 0 0 0 0 0 0 1 0 0 0 0 0 0 0 0 0 0 0 0 0 0 0 0 0 0 0 0 0 0
0 0 0 0 0 0 0 1 1 0 0 0 0 1 0 0 0 0 0 0 0 0 0 0 0 0 0 0 0 0 0 0
0 0 0 0 0 0 0 0 0 0 0 0 0 0 0 0 0 0 0 0 0 0 0 0 0 0 0 0 0 0 0 0
0 0 0 0 0 0 0 0 0 0 0 0 0 0 0 0 0 0 0 0 0 0 0 0 0 0 0 0 0 0 0 0
0 0 0 0 0 0 0 0 0 0 0 0 0 0 0 0 0 0 0 0 0 0 0 0 0 0 0 0 0 0 0 0
0 0 0 0 0 0 0 0 0 0 0 0 0 0 0 0 0 0 0 0 0 0 0 0 0 0 0 0 0 0 0 0
0 0 0 0 0 0 0 0 0 0 0 0 0 0 0 0 0 0 0 0 0 0 0 0 0 0 0 0 0 0 0 0
0 0 0 0 0 0 0 0 0 0 0 0 0 0 0 0 0 0 0 0 0 0 0 0 0 0 0 0 0 0 0 0
0 0 0 0 0 0 0 0 0 0 0 0 0 0 0 0 0 0 0 0 0 0 0 0 0 0 0 0 0 0 0 0
0 0 0 0 0 0 0 0 0 0 0 0 0 0 0 0 0 0 0 0 0 0 0 0 0 0 0 0 0 0 0 0
0 0 0 0 0 0 0 0 0 0 0 0 0 0 0 0 0 0 0 0 0 0 0 0 0 0 0 0 0 0 0 0
0 0 0 0 0 0 0 0 0 0 0 0 0 0 0 0 0 0 0 0 0 0 0 0 0 0 0 0 0 0 0 0
0 0 0 0 0 0 0 0 0 0 0 0 0 0 0 0 0 0 0 0 0 0 0 0 0 0 0 0 0 0 0 0
0 0 0 0 0 0 0 0 0 0 0 0 0 0 0 0 0 0 0 0 0 0 0 0 0 0 0 0 0 0 0 0
0 0 0 0 0 0 0 0 0 0 0 0 0 0 0 0 0 0 0 0 0 0 0 0 0 0 0 0 0 0 0 0
0 0 0 0 0 0 0 0 0 0 0 0 0 0 0 0 0 0 0 0 0 0 0 0 0 0 0 0 0 0 0 0
Wind_Speed_500mb
55 57 58 57 54 47 48 48 68 73 65 56 53 56 55 50 48 48 47 48 50 63 69 62 58 62 60 56 54 55 55 55
57 41 28 30 39 43 42 51 62 69 75 65 61 67 57 53 53 53 52 52 55 60 64 70 68 71 75 69 61 64 66 63
25 28 31 29 28 24 34 45 51 62 74 70 63 72 63 59 61 61 63 63 65 69 72 79 81 66 73 67 69 69 74 66
31 27 22 16 17 22 32 34 43 61 74 72 67 65 67 66 66 68 66 62 61 58 66 73 79 74 72 72 75 75 78 67
29 22 16 10 8 12 25 31 47 60 71 73 70 70 71 68 64 63 61 63 66 65 63 66 71 75 69 72 77 83 82 73
27 21 15 11 9 14 21 26 33 48 63 69 69 72 68 62 59 65 67 66 72 76 67 61 63 62 65 76 81 59 61 63
23 16 11 9 10 13 21 30 40 51 61 62 66 67 63 63 54 59 66 68 71 71 66 66 62 59 56 63 64 50 41 49
22 14 10 9 4 3 15 25 34 41 48 53 57 60 64 64 56 58 58 65 73 67 68 63 63 62 55 41 31 23 33 34
14 11 8 8 4 7 11 17 29 38 44 47 50 52 55 57 61 63 64 61 70 60 55 52 48 41 37 36 26 27 30 28
9 6 7 2 10 17 15 14 22 34 41 47 46 50 51 55 52 62 55 59 57 52 52 44 40 43 37 34 36 40 43 44
21 6 10 11 15 25 19 23 23 25 29 33 36 41 44 47 51 53 50 50 53 47 45 47 49 42 40 40 38 42 42 39
19 27 27 25 25 26 27 27 27 27 32 34 35 40 43 47 52 50 47 46 45 47 55 54 46 37 42 45 48 47 47 48
8 31 37 35 34 30 31 27 28 30 29 30 31 34 38 42 42 42 41 43 47 57 51 43 41 41 43 43 40 42 43 45
14 13 33 40 37 34 34 33 33 32 31 28 28 33 36 36 38 39 38 41 51 52 44 40 39 42 44 46 42 39 39 39
16 8 16 21 25 32 32 31 31 29 28 28 30 33 34 35 38 41 44 49 53 47 43 42 42 42 42 40 40 41 38 36
29 22 16 9 3 4 9 23 31 36 39 40 37 39 41 40 42 46 48 51 51 46 46 46 41 42 42 42 40 41 37 37
22 17 17 17 13 14 19 20 17 15 42 43 48 48 52 50 50 51 50 54 57 50 50 46 44 47 45 43 44 42 41 39
19 17 17 19 22 30 37 42 44 46 37 31 39 51 62 57 51 40 50 60 51 47 48 50 52 53 52 51 48 45 43 39
13 19 22 24 28 31 37 40 40 49 49 38 35 46 67 66 51 56 51 60 60 59 61 62 61 58 57 56 52 46 40 35
Wind_Direction_500mb
274 264 260 255 235 237 234 230 222 224 214 214 219 223 227 229 231 236 239 236 232 230 230 233 236 238 238 241 244 248 246 243
279 277 248 221 218 218 220 214 216 220 215 210 213 220 225 227 230 234 236 239 235 233 234 235 234 234 238 241 244 238 234 231
186 191 186 188 197 196 211 213 219 220 219 214 215 219 223 226 230 234 236 235 236 235 239 238 236 241 237 243 241 237 232 223
141 155 164 148 168 172 193 212 219 221 220 215 217 217 223 229 232 233 236 241 244 242 237 241 238 241 237 234 233 230 234 208
156 144 143 151 162 175 193 207 219 222 221 220 225 222 224 234 240 242 239 244 244 239 241 238 241 243 241 245 234 232 231 216
157 149 150 150 147 183 193 196 214 222 222 225 228 230 235 241 243 241 241 240 238 243 245 241 241 245 246 243 238 234 229 210
146 150 152 173 175 184 196 207 216 220 224 227 231 238 240 240 248 250 246 245 236 231 240 247 250 245 241 245 240 222 216 212
142 146 146 147 124 205 225 211 217 224 231 236 239 238 242 246 258 257 255 254 243 240 241 236 236 243 236 220 207 198 208 204
158 186 179 130 47 343 301 262 230 229 237 244 247 252 250 247 255 249 253 250 254 242 238 237 237 219 204 187 197 189 214 216
179 235 223 265 341 345 337 301 264 248 241 236 240 249 256 252 258 253 261 245 246 245 241 228 212 189 198 199 209 228 226 204
185 263 302 284 317 321 309 313 292 280 263 250 246 253 257 259 258 258 252 254 244 238 227 206 192 200 214 222 217 212 211 205
248 263 264 250 253 264 273 290 287 290 284 271 254 251 253 253 251 246 245 241 230 222 195 192 206 216 210 208 208 206 208 209
354 242 233 236 241 247 256 274 286 298 293 286 269 255 258 256 251 249 237 223 210 195 196 211 217 210 205 203 205 203 202 202
320 292 235 237 244 253 257 262 273 281 287 291 286 271 257 252 251 245 231 218 199 198 211 216 211 202 197 194 196 197 191 192
59 115 183 205 214 224 235 249 259 266 276 280 289 283 273 257 243 232 223 207 206 215 216 208 208 204 202 198 195 200 192 193
85 83 74 81 164 263 270 256 260 262 264 267 278 285 274 258 241 227 219 219 223 220 205 207 204 211 211 206 200 199 192 194
87 75 44 19 1 337 332 334 325 320 263 268 269 269 263 256 240 224 224 227 223 215 209 208 208 215 214 210 206 201 197 198
71 49 25 359 341 333 330 321 307 299 300 298 269 277 255 247 237 229 233 228 221 211 215 220 221 215 212 211 210 205 204 193
12 0 356 348 343 332 317 305 303 300 293 286 278 280 255 236 219 223 224 227 219 219 221 221 220 214 213 214 209 207 199 196
Wind_Speed_850mb
55 57 58 57 54 47 48 48 68 73 65 56 53 56 55 50 48 48 47 48 50 63 69 62 58 62 60 56 54 55 55 55
57 41 28 30 39 43 42 51 62 69 75 65 61 67 57 53 53 53 52 52 55 60 64 70 68 71 75 69 61 64 66 63
25 28 31 29 28 24 34 45 51 62 74 70 63 72 63 59 61 61 63 63 65 69 72 79 81 66 73 67 69 69 74 66
31 27 22 16 17 22 32 34 43 61 74 72 67 65 67 66 66 68 66 62 61 58 66 73 79 74 72 72 75 75 78 67
29 22 16 10 8 12 25 31 47 60 71 73 70 70 71 68 64 63 61 63 66 65 63 66 71 75 69 72 77 83 82 73
27 21 15 11 9 14 21 26 33 48 63 69 69 72 68 62 59 65 67 66 72 76 67 61 63 62 65 76 81 59 61 63
23 16 11 9 10 13 21 30 40 51 61 62 66 67 63 63 54 59 66 68 71 71 66 66 62 59 56 63 64 50 41 49
22 14 10 9 4 3 15 25 34 41 48 53 57 60 64 64 56 58 58 65 73 67 68 63 63 62 55 41 31 23 33 34
14 11 8 8 4 7 11 17 29 38 44 47 50 52 55 57 61 63 64 61 70 60 55 52 48 41 37 36 26 27 30 28
9 6 7 2 10 17 15 14 22 34 41 47 46 50 51 55 52 62 55 59 57 52 52 44 40 43 37 34 36 40 43 44
21 6 10 11 15 25 19 23 23 25 29 33 36 41 44 47 51 53 50 50 53 47 45 47 49 42 40 40 38 42 42 39
19 27 27 25 25 26 27 27 27 27 32 34 35 40 43 47 52 50 47 46 45 47 55 54 46 37 42 45 48 47 47 48
8 31 37 35 34 30 31 27 28 30 29 30 31 34 38 42 42 42 41 43 47 57 51 43 41 41 43 43 40 42 43 45
14 13 33 40 37 34 34 33 33 32 31 28 28 33 36 36 38 39 38 41 51 52 44 40 39 42 44 46 42 39 39 39
16 8 16 21 25 32 32 31 31 29 28 28 30 33 34 35 38 41 44 49 53 47 43 42 42 42 42 40 40 41 38 36
29 22 16 9 3 4 9 23 31 36 39 40 37 39 41 40 42 46 48 51 51 46 46 46 41 42 42 42 40 41 37 37
22 17 17 17 13 14 19 20 17 15 42 43 48 48 52 50 50 51 50 54 57 50 50 46 44 47 45 43 44 42 41 39
19 17 17 19 22 30 37 42 44 46 37 31 39 51 62 57 51 40 50 60 51 47 48 50 52 53 52 51 48 45 43 39
13 19 22 24 28 31 37 40 40 49 49 38 35 46 67 66 51 56 51 60 60 59 61 62 61 58 57 56 52 46 40 35
Wind_Direction_850mb
274 264 260 255 235 237 234 230 222 224 214 214 219 223 227 229 231 236 239 236 232 230 230 233 236 238 238 241 244 248 246 243
279 277 248 221 218 218 220 214 216 220 215 210 213 220 225 227 230 234 236 239 235 233 234 235 234 234 238 241 244 238 234 231
186 191 186 188 197 196 211 213 219 220 219 214 215 219 223 226 230 234 236 235 236 235 239 238 236 241 237 243 241 237 232 223
141 155 164 148 168 172 193 212 219 221 220 215 217 217 223 229 232 233 236 241 244 242 237 241 238 241 237 234 233 230 234 208
156 144 143 151 162 175 193 207 219 222 221 220 225 222 224 234 240 242 239 244 244 239 241 238 241 243 241 245 234 232 231 216
157 149 150 150 147 183 193 196 214 222 222 225 228 230 235 241 243 241 241 240 238 243 245 241 241 245 246 243 238 234 229 210
146 150 152 173 175 184 196 207 216 220 224 227 231 238 240 240 248 250 246 245 236 231 240 247 250 245 241 245 240 222 216 212
142 146 146 147 124 205 225 211 217 224 231 236 239 238 242 246 258 257 255 254 243 240 241 236 236 243 236 220 207 198 208 204
158 186 179 130 47 343 301 262 230 229 237 244 247 252 250 247 255 249 253 250 254 242 238 237 237 219 204 187 197 189 214 216
179 235 223 265 341 345 337 301 264 248 241 236 240 249 256 252 258 253 261 245 246 245 241 228 212 189 198 199 209 228 226 204
185 263 302 284 317 321 309 313 292 280 263 250 246 253 257 259 258 258 252 254 244 238 227 206 192 200 214 222 217 212 211 205
248 263 264 250 253 264 273 290 287 290 284 271 254 251 253 253 251 246 245 241 230 222 195 192 206 216 210 208 208 206 208 209
354 242 233 236 241 247 256 274 286 298 293 286 269 255 258 256 251 249 237 223 210 195 196 211 217 210 205 203 205 203 202 202
320 292 235 237 244 253 257 262 273 281 287 291 286 271 257 252 251 245 231 218 199 198 211 216 211 202 197 194 196 197 191 192
59 115 183 205 214 224 235 249 259 266 276 280 289 283 273 257 243 232 223 207 206 215 216 208 208 204 202 198 195 200 192 193
85 83 74 81 164 263 270 256 260 262 264 267 278 285 274 258 241 227 219 219 223 220 205 207 204 211 211 206 200 199 192 194
87 75 44 19 1 337 332 334 325 320 263 268 269 269 263 256 240 224 224 227 223 215 209 208 208 215 214 210 206 201 197 198
71 49 25 359 341 333 330 321 307 299 300 298 269 277 255 247 237 229 233 228 221 211 215 220 221 215 212 211 210 205 204 193
12 0 356 348 343 332 317 305 303 300 293 286 278 280 255 236 219 223 224 227 219 219 221 221 220 214 213 214 209 207 199 196